Regional Weather Roundup
Issued by NWS Newport/Morehead, NC

Current Version | Previous Version | Text Only | Print | Product List | Glossary Off
Versions: 1 2 3 4 5 6 7 8 9 10 11 12 13 14 15 16 17 18 19 20 21 22 23 24 25 26 27 28 29 30 31 32 33 34 35 36 37 38 39 40 41 42 43 44 45 46 47 48 49 50
000 ASUS42 KMHX 290622 RWRMHX WEATHER ROUNDUP FOR EASTERN NORTH CAROLINA NATIONAL WEATHER SERVICE NEWPORT/MOREHEAD CITY NC 100 AM EST THU JAN 29 2015 NOTE: "FAIR" INDICATES FEW OR NO CLOUDS BELOW 12,000 FEET WITH NO SIGNIFICANT WEATHER AND/OR OBSTRUCTIONS TO VISIBILITY NCZ015>017-031-032-045>047-102-103-290700- NORTH COAST CITY SKY/WX TMP DP RH WIND PRES REMARKS EDENTON CLEAR 28 14 54 N3 30.34S ELIZABETH CITY CLEAR 28 13 53 NW6 30.33F KITTY HAWK CLEAR 34 17 51 N8 30.30S MANTEO CLEAR 34 19 55 N9 30.31F $$ NCZ045>047-081-094-103-104-290700- CENTRAL COAST CITY SKY/WX TMP DP RH WIND PRES REMARKS FRISCO CLEAR 36 16 44 VRB5 30.31S SWANQUARTER NOT AVBL $$ NCZ095-097-098-100-101-290700- SOUTHERN COAST CITY SKY/WX TMP DP RH WIND PRES REMARKS BEAUFORT CLEAR 32 21 64 N7 30.32F CEDAR ISLAND NOT AVBL JACKSONVILLE CLEAR 26 21 81 W3 30.34S PINEY ISLAND N/A N/A N/A N/A MISG 30.32S WILMINGTON CLEAR 25 22 88 CALM 30.34S $$ NCZ011>013-027>030-043-044-078>080-089-090>093-098-290700- COASTAL PLAIN CITY SKY/WX TMP DP RH WIND PRES REMARKS AHOSKIE CLEAR 23 18 81 CALM 30.36S CLINTON CLEAR 26 24 93 CALM 30.35S ELIZABETHTOWN CLEAR 25 20 81 CALM 30.35R GOLDSBORO CLEAR 27 26 98 CALM 30.33R GREENVILLE CLEAR 27 21 80 CALM 30.35R HAVELOCK CLEAR 26 19 74 CALM 30.33F KENANSVILLE CLEAR 23 21 91 CALM 30.35S KINSTON CLEAR 23 18 81 CALM 30.35S NEW BERN CLEAR 27 19 72 SW3 30.34S RICHLANDS CLEAR 21 18 86 CALM 30.35R ROCKY MOUNT CLEAR 23 20 88 CALM 30.35R WASHINGTON CLEAR 28 13 55 N3 30.34F WHITEVILLE CLEAR 28 22 79 CALM 30.34S $$ AMZ130-135-150-152-154-156-158-170-250-252-270-ANZ085-086-088-633-658-670-290700- MARINE OBSERVATIONS STATION/POSITION TIME TEMP WIND PRES WAVE SWELL AIR SEA DIR/SP/G HT/PER HT/PER (UTC) (F) (DEG/KT/KT) (MB) (FT/S) (FT/S) CHESAPEAKE LIGHT 0600 34 360/ 19/ 22 1026.8 64 E VA BEACH 0600 37 50 350/ 16/ 19 1024.8 7/ 6 3/12 DUCK 0600 35 42 10/ 17/ 19 1025.2 2 E DUCK 0600 43 N/A 5/ 6 2/12 10 NE DUCK 0600 45 N/A 6/ 7 2/11 OREGON INLET 0600 34 43 330/ 7/ 11 1026.1 13E OREGON INLT 0600 45 N/A 7/13 3/13 HATTERAS CG 0600 37 44 350/ 17/ 19 1026.4 DIAMOND BUOY 0600 41 70 350/ 17/ 21 1025.6 6/11 5/11 17 S OCRACOKE NOT AVBL CAPE LOOKOUT 0600 38 340/ 11/ 14 1026.5 BEAUFORT LAB 0600 36 46 350/ 5/ 7 1025.6 27 SE WRIGHTSVLE NOT AVBL 5 SE WRIGHTSVLE 0600 44 52 20/ 10/ 14 1027.2 225 S CAPE HAT 0500 56 71 350/ 19/ 23 1023.3 10/ 8 41 SE CHARLESTON 0600 49 66 20/ 14/ 17 1026.7 4/12 2/12 $$

USA.gov is the U.S. government's official web portal to all federal, state and local government web resources and services.